Atlanta Fulton, GA

3:31 PM EDT on July 26, 2017 (GMT -0400)
Fulton County-Brown

Weather History for KFTY - November, 2013

Change the Weather History Date:

Wednesday, November 27, 2013

  Actual Average Record
Temperature  
Mean Temperature 36 °F 49 °F  
Max Temperature 44 °F 60 °F 73 °F (2001)
Min Temperature 27 °F 39 °F 27 °F (2013)
Degree Days  
Heating Degree Days 29 16  
Month to date heating degree days 382 318  
Since 1 July heating degree days 497 461  
Moisture  
Dew Point 26 °F    
Average Humidity 72    
Maximum Humidity 92    
Minimum Humidity 52    
Precipitation  
Precipitation 0.09 in 0.16 in 1.95 in (1993)
Month to date precipitation 1.98 3.67  
Year to date precipitation 46.68  
Snow  
Snow 0.00 in - - ()
Month to date snowfall 0.0  
Since 1 July snowfall 0.0  
Since 1 September snowfall 0.0  
Snow Depth 0.00 in    
Sea Level Pressure  
Sea Level Pressure 29.96 in    
Wind  
Wind Speed 13 mph (NW)    
Max Wind Speed 26 mph    
Max Gust Speed 39 mph    
Visibility 10 miles    
Events Rain , Snow    
T = Trace of Precipitation, MM = Missing Value Source: NWS Daily Summary

Daily Weather History Graph

Daily Weather History Graph

Search for Another Location

Airport or City:

Trip Planner

Search our weather history database for the weather conditions in past years. The results will help you decide how hot, cold, wet, or windy it might be!

Date:

Astronomy

Nov. 27, 2013 Rise Set
Actual Time 7:21 AM EST 5:29 PM EST
Civil Twilight 6:54 AM EST 5:57 PM EST
Nautical Twilight 6:23 AM EST 6:27 PM EST
Astronomical Twilight 5:53 AM EST 6:57 PM EST
Moon 1:38 AM EST (11/27) 1:53 PM EST (11/27)
Length of Visible Light 11h 02m
Length of Day
10h 08m
Waning Crescent, 32% of the Moon is Illuminated
Nov 27
Waning Crescent
Dec 2
New
Dec 9
First Quarter
Dec 17
Full
Dec 25
Last Quarter

Hourly Weather History & Observations

Time (EST) Temp. Windchill Dew Point Humidity Pressure Visibility Wind Dir Wind Speed Gust Speed Precip Events Conditions
12:53 AM 42.1 °F 37.1 °F 39.0 °F 89% 29.70 in 8.0 mi NW 8.1 mph 19.6 mph 0.03 in Rain Light Rain
1:11 AM 42.8 °F 38.0 °F 39.2 °F 87% 29.70 in 7.0 mi NW 8.1 mph 19.6 mph 0.01 in Rain Light Rain
1:53 AM 39.9 °F 32.9 °F 37.9 °F 93% 29.70 in 9.0 mi NW 11.5 mph 25.3 mph 0.03 in Rain Light Rain
2:53 AM 39.0 °F 31.0 °F 36.0 °F 89% 29.71 in 10.0 mi NW 13.8 mph 28.8 mph 0.00 in Rain Light Rain
3:01 AM 39.2 °F 31.6 °F 35.6 °F 87% 29.71 in 10.0 mi NNW 12.7 mph 25.3 mph 0.00 in   Overcast
3:53 AM 39.0 °F 31.4 °F 35.1 °F 86% 29.74 in 10.0 mi NW 12.7 mph 19.6 mph 0.00 in   Overcast
4:33 AM 37.4 °F 27.2 °F 33.8 °F 87% 29.73 in 10.0 mi NNW 19.6 mph 38.0 mph 0.01 in Rain Light Rain
4:53 AM 36.0 °F 24.4 °F 32.0 °F 86% 29.75 in 10.0 mi NW 23.0 mph 31.1 mph 0.01 in Rain Light Rain
5:53 AM 34.0 °F 23.4 °F 30.9 °F 89% 29.80 in 5.0 mi NW 17.3 mph 34.5 mph 0.02 in Rain Rain
6:53 AM 35.1 °F 24.5 °F 28.0 °F 76% 29.83 in 10.0 mi NW 18.4 mph 36.8 mph 0.01 in Snow Light Snow
7:53 AM 35.1 °F 25.9 °F 28.0 °F 76% 29.87 in 10.0 mi NNW 13.8 mph 25.3 mph 0.00 in   Overcast
8:53 AM 35.1 °F 25.9 °F 28.0 °F 76% 29.91 in 10.0 mi NW 13.8 mph 26.5 mph 0.00 in   Overcast
9:32 AM 35.6 °F 25.5 °F 26.6 °F 70% 29.92 in 10.0 mi NW 17.3 mph 29.9 mph N/A   Overcast
9:53 AM 36.0 °F 26.7 °F 26.1 °F 67% 29.94 in 10.0 mi NNW 15.0 mph 27.6 mph N/A   Overcast
10:53 AM 36.0 °F 24.7 °F 26.1 °F 67% 29.97 in 10.0 mi NW 21.9 mph 28.8 mph 0.00 in   Overcast
11:53 AM 36.0 °F 24.4 °F 25.0 °F 64% 29.98 in 10.0 mi NNW 23.0 mph 27.6 mph 0.00 in   Overcast
12:53 PM 36.0 °F 26.0 °F 24.1 °F 62% 30.01 in 10.0 mi NNW 17.3 mph 31.1 mph 0.00 in Snow Light Snow
1:53 PM 36.0 °F 28.5 °F 24.1 °F 62% 30.04 in 10.0 mi NW 10.4 mph 23.0 mph 0.00 in   Overcast
2:53 PM 36.0 °F 28.0 °F 21.9 °F 57% 30.06 in 10.0 mi WNW 11.5 mph 23.0 mph N/A   Mostly Cloudy
3:53 PM 37.0 °F 29.3 °F 21.0 °F 52% 30.09 in 10.0 mi NNW 11.5 mph - N/A   Clear
4:53 PM 36.0 °F 27.5 °F 19.9 °F 52% 30.12 in 10.0 mi NW 12.7 mph 21.9 mph N/A   Scattered Clouds
5:53 PM 32.0 °F 22.1 °F 19.0 °F 59% 30.16 in 10.0 mi NW 13.8 mph 20.7 mph N/A   Clear
6:53 PM 30.9 °F 24.3 °F 18.0 °F 59% 30.19 in 10.0 mi NNW 6.9 mph - N/A   Clear
7:53 PM 30.0 °F 23.2 °F 17.1 °F 59% 30.22 in 10.0 mi NNW 6.9 mph - N/A   Clear
8:53 PM 30.0 °F 21.7 °F 17.1 °F 59% 30.24 in 10.0 mi NW 9.2 mph - N/A   Clear
9:53 PM 28.9 °F 19.2 °F 16.0 °F 58% 30.25 in 10.0 mi NNW 11.5 mph - N/A   Clear
10:53 PM 28.0 °F 20.0 °F 16.0 °F 61% 30.28 in 10.0 mi NNW 8.1 mph - N/A   Clear
11:53 PM 28.0 °F 21.7 °F 16.0 °F 61% 30.30 in 10.0 mi NW 5.8 mph - N/A   Clear